Weather History for Albany, GA

Change the Weather History Date:

Thursday, December 13, 2012

  Actual Average Record
Temperature  
Mean Temperature 50 °F 51 °F  
Max Temperature 58 °F 63 °F 81 °F (1931)
Min Temperature 42 °F 40 °F 6 °F (1962)
Degree Days  
Heating Degree Days 15 14  
Month to date heating degree days 57 167  
Since 1 July heating degree days 392 437  
Cooling Degree Days 0 0  
Month to date cooling degree days 2 0  
Year to date cooling degree days 2805 2533  
Moisture  
Dew Point 43 °F    
Average Humidity 75    
Maximum Humidity 93    
Minimum Humidity 57    
Precipitation  
Precipitation 0.00 in 0.13 in 1.10 in (2002)
Month to date precipitation 0.45 1.87  
Year to date precipitation 27.88 46.69  
Sea Level Pressure  
Sea Level Pressure 30.31 in    
Wind  
Wind Speed 8 mph (NE)    
Max Wind Speed 17 mph    
Max Gust Speed 23 mph    
Visibility 10 miles    
Events      
T = Trace of Precipitation, MM = Missing Value Source: NWS Daily Summary

Daily Weather History Graph

Daily Weather History Graph

Search for Another Location

Airport:

Trip Planner

Search our weather history database for the weather conditions in past years. The results will help you decide how hot, cold, wet, or windy it might be!

Date:

Astronomy

Dec. 13, 2012 Rise Set
Actual Time 7:27 AM EST 5:34 PM EST
Civil Twilight 7:00 AM EST 6:01 PM EST
Nautical Twilight 6:30 AM EST 6:31 PM EST
Astronomical Twilight 6:00 AM EST 7:01 PM EST
Moon 7:36 AM EST (12/13) 6:14 PM EST (12/13)
Length of Visible Light 11h 00m
Length of Day
10h 06m
New Moon, 0% of the Moon is Illuminated
Dec 13
New Moon
Dec 20
First Quarter
Dec 28
Full
Jan 4
Last Quarter
Jan 11
New

Hourly Weather History & Observations

Time (EST) Temp. Windchill Dew Point Humidity Pressure Visibility Wind Dir Wind Speed Gust Speed Precip Events Conditions
12:53 AM 46.0 °F 42.5 °F 44.1 °F 93% 30.21 in 10.0 mi ENE 6.9 mph - N/A   Overcast
1:53 AM 46.9 °F - 44.1 °F 90% 30.22 in 10.0 mi NE 3.5 mph - N/A   Overcast
2:53 AM 46.0 °F 43.9 °F 44.1 °F 93% 30.24 in 10.0 mi North 4.6 mph - N/A   Overcast
3:53 AM 46.9 °F - 44.1 °F 90% 30.25 in 10.0 mi North 5.8 mph - N/A   Overcast
4:53 AM 46.0 °F 41.0 °F 43.0 °F 89% 30.25 in 10.0 mi NNE 10.4 mph - N/A   Overcast
5:53 AM 46.0 °F 41.9 °F 43.0 °F 89% 30.27 in 10.0 mi North 8.1 mph - N/A   Overcast
6:53 AM 46.0 °F 43.1 °F 43.0 °F 89% 30.30 in 9.0 mi NNE 5.8 mph - N/A   Overcast
7:53 AM 45.0 °F 41.8 °F 42.1 °F 90% 30.31 in 10.0 mi NNE 5.8 mph - N/A   Overcast
8:53 AM 46.0 °F 41.9 °F 42.1 °F 86% 30.33 in 10.0 mi NNE 8.1 mph - N/A   Overcast
9:15 AM 46.4 °F 42.9 °F 42.8 °F 87% 30.33 in 10.0 mi NE 6.9 mph - N/A   Overcast
9:25 AM 46.4 °F 42.9 °F 42.8 °F 87% 30.34 in 10.0 mi NNE 6.9 mph - N/A   Overcast
9:53 AM 46.9 °F - 43.0 °F 86% 30.35 in 10.0 mi NE 6.9 mph 16.1 mph N/A   Overcast
10:53 AM 48.0 °F - 42.1 °F 80% 30.35 in 10.0 mi NNE 10.4 mph 16.1 mph N/A   Overcast
11:53 AM 48.9 °F - 42.1 °F 77% 30.34 in 10.0 mi NNE 5.8 mph - N/A   Overcast
12:00 PM 50.0 °F - 42.8 °F 76% 30.33 in 10.0 mi ENE 8.1 mph - N/A   Overcast
12:53 PM 54.0 °F - 43.0 °F 66% 30.32 in 10.0 mi ENE 10.4 mph 17.3 mph N/A   Mostly Cloudy
1:53 PM 57.0 °F - 43.0 °F 59% 30.30 in 10.0 mi ENE 15.0 mph - N/A   Mostly Cloudy
1:54 PM 57.2 °F - 42.8 °F 59% 30.30 in 10.0 mi NE 12.7 mph - N/A   Partly Cloudy
1:55 PM 57.2 °F - 42.8 °F 59% 30.30 in 10.0 mi NE 11.5 mph - N/A   Mostly Cloudy
2:53 PM 57.9 °F - 43.0 °F 58% 30.30 in 10.0 mi NE 10.4 mph - N/A   Mostly Cloudy
3:27 PM 57.2 °F - 42.8 °F 59% 30.29 in 10.0 mi NE 11.5 mph - N/A   Mostly Cloudy
3:53 PM 55.9 °F - 43.0 °F 62% 30.29 in 10.0 mi ENE 10.4 mph - N/A   Partly Cloudy
4:53 PM 52.0 °F - 43.0 °F 71% 30.30 in 10.0 mi East 9.2 mph - N/A   Clear
6:53 PM 46.0 °F 43.1 °F 41.0 °F 83% 30.32 in 10.0 mi ENE 5.8 mph - N/A   Clear
7:53 PM 46.0 °F 39.9 °F 42.1 °F 86% 30.33 in 10.0 mi NE 13.8 mph 17.3 mph N/A   Overcast
8:53 PM 46.9 °F - 42.1 °F 83% 30.33 in 10.0 mi ENE 10.4 mph - N/A   Overcast
9:13 PM 48.2 °F - 42.8 °F 82% 30.33 in 10.0 mi ENE 9.2 mph - N/A   Overcast
9:53 PM 46.9 °F - 42.1 °F 83% 30.35 in 10.0 mi ENE 8.1 mph - N/A   Mostly Cloudy
10:04 PM 46.4 °F 42.9 °F 42.8 °F 87% 30.34 in 10.0 mi East 6.9 mph - N/A   Mostly Cloudy
10:16 PM 44.6 °F 41.4 °F 42.8 °F 93% 30.35 in 10.0 mi East 5.8 mph - N/A   Scattered Clouds
10:53 PM 44.1 °F 41.5 °F 41.0 °F 89% 30.35 in 10.0 mi East 4.6 mph - N/A   Clear
11:53 PM 42.1 °F 39.2 °F 39.9 °F 92% 30.35 in 8.0 mi ENE 4.6 mph - N/A   Clear